TimeMDT,TemperatureF,Dew PointF,Humidity,Sea Level PressureIn,VisibilityMPH,Wind Direction,Wind SpeedMPH,Gust SpeedMPH,PrecipitationIn,Events,Conditions,WindDirDegrees,DateUTC
12:15 AM,37.4,30.2,75,30.04,10.0,Calm,Calm,-,N/A,,Clear,0,2013-10-01 06:15:00
12:35 AM,35.6,32.0,87,30.05,10.0,ESE,3.5,-,N/A,,Clear,110,2013-10-01 06:35:00
12:55 AM,37.4,32.0,81,30.05,10.0,NNW,3.5,-,N/A,,Clear,340,2013-10-01 06:55:00
1:15 AM,37.4,32.0,81,30.04,10.0,NW,6.9,-,N/A,,Clear,320,2013-10-01 07:15:00
1:35 AM,37.4,32.0,81,30.03,10.0,NNW,9.2,-,N/A,,Clear,330,2013-10-01 07:35:00
1:55 AM,37.4,32.0,81,30.04,10.0,Calm,Calm,-,N/A,,Clear,0,2013-10-01 07:55:00
2:15 AM,35.6,32.0,87,30.04,10.0,NNW,9.2,-,N/A,,Clear,340,2013-10-01 08:15:00
2:35 AM,35.6,30.2,81,30.04,10.0,NNW,11.5,-,N/A,,Clear,330,2013-10-01 08:35:00
2:55 AM,35.6,30.2,81,30.04,10.0,NNW,6.9,-,N/A,,Clear,340,2013-10-01 08:55:00
3:15 AM,35.6,30.2,81,30.03,10.0,NNW,6.9,-,N/A,,Clear,330,2013-10-01 09:15:00
3:35 AM,35.6,30.2,81,30.03,10.0,NW,5.8,-,N/A,,Clear,320,2013-10-01 09:35:00
3:55 AM,35.6,30.2,81,30.02,10.0,NW,3.5,-,N/A,,Clear,320,2013-10-01 09:55:00
4:15 AM,35.6,30.2,81,30.03,10.0,Calm,Calm,-,N/A,,Clear,0,2013-10-01 10:15:00
4:35 AM,35.6,30.2,81,30.03,10.0,Calm,Calm,-,N/A,,Clear,0,2013-10-01 10:35:00
4:55 AM,33.8,30.2,87,30.04,10.0,WNW,4.6,-,N/A,,Clear,290,2013-10-01 10:55:00
5:15 AM,35.6,30.2,81,30.04,10.0,NW,5.8,-,N/A,,Clear,310,2013-10-01 11:15:00
5:35 AM,32.0,30.2,93,30.04,10.0,NW,3.5,-,N/A,,Clear,320,2013-10-01 11:35:00
5:55 AM,33.8,30.2,87,30.04,10.0,NW,6.9,-,N/A,,Clear,320,2013-10-01 11:55:00
6:15 AM,33.8,30.2,87,30.05,10.0,NNW,3.5,-,N/A,,Clear,340,2013-10-01 12:15:00
6:35 AM,32.0,30.2,93,30.05,10.0,Calm,Calm,-,N/A,,Clear,0,2013-10-01 12:35:00
6:47 AM,33.8,30.2,87,30.05,10.0,NW,4.6,-,N/A,,Scattered Clouds,310,2013-10-01 12:47:00
6:55 AM,33.8,32.0,93,30.05,10.0,NNW,4.6,-,N/A,,Clear,330,2013-10-01 12:55:00
7:47 AM,35.6,30.2,81,30.06,10.0,NW,8.1,-,N/A,,Mostly Cloudy,310,2013-10-01 13:47:00
8:47 AM,35.6,30.2,81,30.06,10.0,NW,6.9,-,N/A,,Mostly Cloudy,310,2013-10-01 14:47:00
9:53 AM,41.0,32.0,70,30.06,10.0,WNW,10.4,-,N/A,,Mostly Cloudy,300,2013-10-01 15:53:00
10:50 AM,46.4,33.8,62,30.05,10.0,WNW,11.5,-,N/A,,Mostly Cloudy,300,2013-10-01 16:50:00
11:47 AM,50.0,35.6,58,30.03,10.0,Calm,Calm,-,N/A,,Mostly Cloudy,0,2013-10-01 17:47:00
12:50 PM,53.6,39.2,58,30.02,10.0,ESE,8.1,-,N/A,,Mostly Cloudy,110,2013-10-01 18:50:00
1:50 PM,57.2,37.4,48,30.01,10.0,South,10.4,-,N/A,,Mostly Cloudy,180,2013-10-01 19:50:00
3:47 PM,57.2,37.4,48,29.99,10.0,SSW,11.5,-,N/A,,Mostly Cloudy,210,2013-10-01 21:47:00
4:50 PM,57.2,33.8,41,29.99,10.0,SSW,11.5,-,N/A,,Mostly Cloudy,210,2013-10-01 22:50:00
5:47 PM,57.2,35.6,44,29.99,10.0,SSW,10.4,-,N/A,,Scattered Clouds,210,2013-10-01 23:47:00
6:47 PM,57.2,24.8,29,29.99,10.0,NW,10.4,-,N/A,,Partly Cloudy,310,2013-10-02 00:47:00
7:47 PM,53.6,28.4,38,30.00,10.0,NW,5.8,-,N/A,,Clear,310,2013-10-02 01:47:00
9:47 PM,48.2,28.4,46,30.03,10.0,NW,5.8,-,N/A,,Clear,310,2013-10-02 03:47:00
10:47 PM,48.2,30.2,50,30.04,10.0,NW,5.8,-,N/A,,Clear,310,2013-10-02 04:47:00
11:15 PM,46.4,30.2,53,30.06,10.0,North,4.6,-,N/A,,Scattered Clouds,10,2013-10-02 05:15:00
11:35 PM,46.4,30.2,53,30.06,10.0,North,3.5,-,N/A,,Clear,10,2013-10-02 05:35:00
11:55 PM,44.6,30.2,57,30.06,10.0,Calm,Calm,-,N/A,,Clear,0,2013-10-02 05:55:00